CW9315 Weather Reports


Display with metric or nautical units.
time (UTC)temp
F
wind
direction
speed
MPH
gust
MPH
rain 1hr
in
rain 24hr
in
rain mn
in
humidity
%
barometer
mb
20260505121542 54 211 0.0 0.0 0.00 0.00 0.00 68 1001.2
20260505120049 54 210 0.0 0.0 0.00 0.00 0.00 67 1001.1
20260505114552 54 149 0.0 0.0 0.00 0.00 0.00 66 1000.9
20260505113039 54 149 0.0 0.0 0.00 0.00 0.00 64 1000.9
20260505111537 55 149 0.0 0.0 0.00 0.00 0.00 63 1000.9
20260505101538 55 173 0.0 0.0 0.00 0.00 0.00 63 1000.9
20260505100033 55 163 0.0 0.0 0.00 0.00 0.00 62 1001.0
20260505094530 56 172 0.0 0.0 0.00 0.00 0.00 60 1001.1
20260505093029 56 135 1.0 0.0 0.00 0.00 0.00 60 1001.3
20260505091533 56 165 0.0 0.0 0.00 0.00 0.00 59 1001.4
20260505090041 56 138 1.0 0.0 0.00 0.00 0.00 58 1001.4
20260505084525 57 196 1.0 0.0 0.00 0.00 0.00 58 1001.4
20260505083026 56 172 0.0 0.0 0.00 0.00 0.00 58 1001.4
20260505081531 56 152 0.0 0.0 0.00 0.00 0.00 60 1001.5
20260505080041 56 133 0.0 0.0 0.00 0.00 0.00 60 1001.7
20260505074519 57 138 1.0 0.0 0.00 0.00 0.00 59 1001.8
20260505073017 57 130 0.0 0.0 0.00 0.00 0.00 60 1002.0
20260505071514 58 164 1.0 0.0 0.00 0.00 0.00 60 1002.1
20260505070018 58 159 0.0 0.0 0.00 0.00 0.00 60 1002.1
20260505064512 58 150 0.0 0.0 0.00 0.00 0.00 61 1002.1
20260505063011 58 145 0.0 0.0 0.00 0.00 0.00 61 1002.1
20260505061515 58 202 0.0 0.0 0.00 0.00 0.00 61 1002.0
20260505060015 58 201 1.0 0.0 0.00 0.00 0.00 59 1001.9
20260505054507 58 213 0.0 0.0 0.00 0.00 0.00 58 1001.6
20260505053012 58 213 0.0 0.0 0.00 0.00 0.00 57 1001.2
20260505051504 59 149 0.0 0.0 0.00 0.00 0.00 54 1001.1
20260505041502 62 175 0.0 0.0 0.00 0.00 0.00 46 1000.1
20260505040002 62 153 0.0 0.0 0.00 0.00 0.00 46 999.9
20260505034505 61 196 0.0 0.0 0.00 0.00 0.00 44 999.8
20260505033001 62 181 0.0 0.0 0.00 0.00 0.00 43 999.6
20260505031601 62 181 0.0 0.0 0.00 0.00 0.00 42 999.3
20260505030100 63 181 0.0 0.0 0.00 0.00 0.00 40 999.1
20260505024559 64 181 0.0 0.0 0.00 0.00 0.00 38 998.9
20260505023059 65 182 0.0 0.0 0.00 0.00 0.00 37 998.8
20260505021559 67 193 0.0 0.0 0.00 0.00 0.00 36 998.7
20260505020058 68 173 0.0 0.0 0.00 0.00 0.00 34 998.6
20260505014623 69 178 0.0 0.0 0.00 0.00 0.00 34 998.5
20260505013057 69 194 0.0 0.0 0.00 0.00 0.00 34 998.4
20260505011604 69 186 0.0 0.0 0.00 0.00 0.00 33 998.6
20260505010057 70 188 2.0 0.0 0.00 0.00 0.00 32 998.6
20260505004554 71 216 1.0 0.0 0.00 0.00 0.00 30 998.7
20260505003053 72 163 2.0 0.0 0.00 0.00 0.00 30 998.8
20260505001604 72 250 2.0 0.0 0.00 0.00 0.00 29 999.0
20260505000115 72 249 2.0 0.0 0.00 0.00 0.00 30 999.0
20260504234607 72 250 5.0 0.0 0.00 0.00 0.00 28 999.0
20260504233102 72 256 4.0 0.0 0.00 0.00 0.00 31 999.2
20260504231549 72 252 4.0 0.0 0.00 0.00 0.00 31 999.1
20260504230049 71 209 7.0 0.0 0.00 0.00 0.00 32 999.1
20260504224605 72 240 5.0 0.0 0.00 0.00 0.00 32 999.1
20260504223048 73 278 4.0 0.0 0.00 0.00 0.00 31 999.1
20260504221547 74 303 3.0 0.0 0.00 0.00 0.00 26 999.1
20260504220046 75 288 0.0 0.0 0.00 0.00 0.00 24 999.1
20260504214544 75 302 1.0 0.0 0.00 0.00 0.00 27 999.4
20260504213100 75 294 0.0 0.0 0.00 0.00 0.00 27 999.7
20260504211540 74 271 1.0 0.0 0.00 0.00 0.00 28 1000.0
20260504210039 74 270 1.0 0.0 0.00 0.00 0.00 24 1000.1
20260504204536 75 333 0.0 0.0 0.00 0.00 0.00 29 1000.2
20260504203035 74 198 1.0 0.0 0.00 0.00 0.00 27 1000.4
20260504201534 73 306 1.0 0.0 0.00 0.00 0.00 29 1000.5
20260504200030 73 307 1.0 0.0 0.00 0.00 0.00 30 1000.7
20260504194528 72 268 1.0 0.0 0.00 0.00 0.00 28 1000.8
20260504193025 72 182 1.0 0.0 0.00 0.00 0.00 29 1001.1
20260504191524 72 298 1.0 0.0 0.00 0.00 0.00 28 1001.2
20260504190022 72 284 1.0 0.0 0.00 0.00 0.00 30 1001.4
20260504184521 72 284 1.0 0.0 0.00 0.00 0.00 31 1001.5
20260504183022 71 258 2.0 0.0 0.00 0.00 0.00 33 1001.7
20260504181516 71 216 0.0 0.0 0.00 0.00 0.00 31 1001.9
20260504180015 71 225 1.0 0.0 0.00 0.00 0.00 30 1002.1
20260504174512 70 129 0.0 0.0 0.00 0.00 0.00 34 1002.2
20260504173022 69 343 0.0 0.0 0.00 0.00 0.00 35 1002.3
20260504171510 69 186 0.0 0.0 0.00 0.00 0.00 36 1002.4